星链-6082 (STARLINK-6082 )

导读 | 豆包AI

STARLINK-6082是美国SpaceX公司星链(Starlink)星座的一颗低轨通信卫星,于2023年3月29日发射入轨,运行在约550公里的近地轨道。作为星链第二代组网卫星,它延续了星链卫星平板设计、霍尔推进、相控阵天线的技术路线,配备氩气推进器用于轨道机动与离轨,支持星间激光链路与高效宽带传输,为全球尤其是偏远地区提供低时延卫星互联网接入服务,属于SpaceX大规模低轨通信星座部署的组成部分。

基本信息
目录编号:
56110
目录名称:
STARLINK-6082
国际标识:
2023-046T
轨道中心:
EARTH
卫星名称:
星链-6082
卫星全名:
星链-6082 (STARLINK-6082 )
卫星状态:
在轨 (已飞行1082 天)
发射日期:
2023-03-29 UTC
国别 :
美国 (US)
星等 :
--
轨道信息
数据来源 国际轨道数据 AOE轨道数据
星历时间 2026-03-14T19:31:01+0800
1天前
查看轨道信息
2026-03-14T03:00:00+0800
2天前
查看轨道信息
半长轴 6937.212km 6937.237km
偏心率 0.0001273 0.0000961
轨道倾角 43.003° 43.003°
近地点辐角 269.480° 291.313°
升交点赤经 132.830° 136.572°
平近点角 90.590° 301.860°
近地点 558.191km 558.433km
远地点 559.959km 559.767km
周期 95.838分钟 95.838分钟
每日圈数 15.025375 15.025294
详细信息
固有亮度:
5
最大亮度:
2.5
卫星平台:
Starlink v1.5
覆盖范围:
全球
运营商:
太空探索技术公司
运营商所在国:
美国
制造商(研发单位):
太空探索技术公司
制造商所在国:
美国
使用方式:
暂无
卫星简介
星链(Starlink)计划是由太空探索技术公司(SpaceX)提出的一个巨型低轨卫星互联网星座项目,计划在2019年至2024年间在太空搭建由约1.2万颗卫星组成的“星链”网络,其中1584颗将部署在地球上空550千米处的近地轨道,并从2020年开始工作。该卫星仍在工作。
2D轨道图
3D轨道图
轨道高度分析图
轨道倾角分析图
轨道综合分析图
查看轨道综合分析图